User: anonymous   Login
Location: Ottawa
(45.4170°N, 75.7000°W)
Time: 15:24:49
(UTC-05:00)
Language:

Aureole 3 Rocket - Orbit

View from above orbital plane
View from above orbital plane
View from above satellite
View from above satellite

Ground track
Ground track

The orbit data is extracted from the following two-line orbital elements,

1 12849U 81094B   17021.82657634 +.00000306 +00000-0 +23880-4 0  9992
2 12849 082.4935 279.0474 0904747 088.5580 281.8887 13.50036808722192
Epoch (UTC): 21 January 2017 19:50:16
Eccentricity: 0.0904747
inclination: 82.4935°
perigee height: 398 km
apogee height: 1746 km
right ascension of ascending node: 279.0474°
argument of perigee: 88.5580°
revolutions per day: 13.50036808
mean anomaly at epoch: 281.8887°
orbit number at epoch: 72219

The dashed part of the orbit path shows where the satellite is in the earth's shadow,  

DLR